Seattle Boeing, WA
on Tuesday, February 5, 2013

Tuesday
Previous Day Next Day
Daily Summary
 ActualAverage (KSEA)Record (KSEA)
Temperature
Mean Temperature °F 43°F  
Max Temperature 52°F 49°F 62°F (1987)
Min Temperature 44°F 37°F 14°F (1989)
Degree Days
Heating Degree Days 17 22  
Month to date heating degree days 110  
Since 1 July heating degree days 2759  
Cooling Degree Days 0 0  
Month to date cooling degree days 0  
Year to date cooling degree days 0  
Moisture
Dew Point 40°F   
Average Humidity 76    
Maximum Humidity 87    
Minimum Humidity 63    
Precipitation
Precipitation 0.18 in 0.14 in 0.96 in (1961)
Month to date precipitation 0.67  
Year to date precipitation 6.24  
Snow
Snow 0.00 in in 1.70 in (1949)
Month to date snowfall  
Since 1 July snowfall  
Snow Depth in   
Wind
Wind Speed 9 mph   
Max Wind Speed 17 mph   
Max Gust Speed 33 mph   
Visibility 10 miles   
Events Rain   

Key: T is trace of precipitation, MM is missing value
Source: NWS Daily Summary
Time(PST)TemperatureDew PointHumidity Pressure Visibility Wind DirectionWind SpeedGust SpeedPrecipitationEvents Conditions
12:53 AM 44.1°F 39.9°F 85% 29.90 in 10.0 miles SE 8.1 mph - N/A   Scattered Clouds
1:53 AM 46.0°F 41.0°F 83% 29.90 in 10.0 miles SE 8.1 mph - N/A   Overcast
2:08 AM 46.4°F 41.0°F 81% 29.90 in 10.0 miles SSE 8.1 mph - N/A   Overcast
2:53 AM 46.0°F 41.0°F 83% 29.88 in 10.0 miles SE 8.1 mph - N/A   Overcast
3:09 AM 46.4°F 39.2°F 76% 29.87 in 10.0 miles SSE 8.1 mph - N/A   Overcast
3:53 AM 46.0°F 41.0°F 83% 29.88 in 10.0 miles SSE 5.8 mph - N/A   Overcast
4:53 AM 46.9°F 41.0°F 80% 29.88 in 9.0 miles South 10.4 mph 33.4 mph 0.02 in Rain Light Rain
5:53 AM 46.0°F 41.0°F 83% 29.86 in 10.0 miles SSE 10.4 mph - 0.04 in Rain Light Rain
6:53 AM 46.4°F 42.8°F 87% 29.85 in 10.0 miles SE 9.2 mph 18.4 mph N/A Rain Light Rain
7:53 AM 46.0°F 42.1°F 86% 29.86 in 10.0 miles SSE 3.5 mph - 0.00 in   Overcast
8:53 AM 46.9°F 42.1°F 83% 29.87 in 10.0 miles SE 9.2 mph - N/A   Overcast
9:53 AM 48.9°F 39.9°F 71% 29.87 in 10.0 miles SSE 8.1 mph - N/A   Mostly Cloudy
10:53 AM 52.0°F 41.0°F 66% 29.88 in 10.0 miles South 11.5 mph - N/A   Mostly Cloudy
11:53 AM 51.1°F 39.9°F 66% 29.88 in 10.0 miles South 10.4 mph 19.6 mph 0.01 in   Overcast
12:53 PM 52.0°F 39.9°F 63% 29.86 in 10.0 miles South 12.7 mph 20.7 mph N/A   Mostly Cloudy
1:53 PM 51.1°F 41.0°F 68% 29.85 in 10.0 miles South 9.2 mph 19.6 mph 0.00 in   Scattered Clouds
2:53 PM 51.1°F 39.0°F 63% 29.86 in 10.0 miles South 8.1 mph 19.6 mph 0.01 in Rain Light Rain
3:53 PM 50.0°F 39.0°F 66% 29.86 in 10.0 miles South 17.3 mph 25.3 mph 0.01 in   Overcast
4:53 PM 48.0°F 39.9°F 74% 29.86 in 8.0 miles SW 6.9 mph - 0.01 in Rain Light Rain
5:53 PM 46.0°F 41.0°F 83% 29.87 in 9.0 miles South 5.8 mph - 0.07 in Rain Light Rain
5:57 PM 46.4°F 41.0°F 81% 29.87 in 10.0 miles South 4.6 mph - N/A Rain Light Rain
6:53 PM 48.0°F 41.0°F 77% 29.88 in 10.0 miles South 8.1 mph 20.7 mph 0.00 in   Mostly Cloudy
7:53 PM 46.9°F 39.9°F 77% 29.90 in 10.0 miles South 12.7 mph - 0.00 in   Overcast
8:24 PM 46.4°F 39.2°F 76% 29.91 in 10.0 miles South 12.7 mph 24.2 mph N/A   Mostly Cloudy
8:53 PM 46.9°F 39.0°F 74% 29.91 in 10.0 miles South 11.5 mph 19.6 mph N/A   Mostly Cloudy
9:53 PM 46.9°F 39.0°F 74% 29.92 in 10.0 miles South 15.0 mph 21.9 mph 0.00 in   Mostly Cloudy
10:53 PM 46.9°F 39.0°F 74% 29.93 in 10.0 miles South 13.8 mph 19.6 mph 0.01 in   Mostly Cloudy
11:53 PM 46.9°F 37.9°F 71% 29.95 in 10.0 miles South 10.4 mph 18.4 mph N/A   Mostly Cloudy
Moon Phase
Feb. 05 Feb. 10 Feb. 17 Feb. 25 Mar. 04
Sunrise:07:29 AM (PST) Moon Rise:03:25 AM (PST)2/5
Sunset:05:17 PM (PST) Moon Set:12:31 PM (PST)2/5

Copyright © 2014 The Weather Underground, Inc.